Weather History for Montreal, QC

Change the Weather History Date:

Tuesday, February 25, 2014

  Actual Average Record
Temperature  
Mean Temperature 12 °F -  
Max Temperature 15 °F 27 °F 44 °F (2002)
Min Temperature 8 °F 12 °F -4 °F (1997)
Degree Days  
Heating Degree Days 54    
Moisture  
Dew Point 3 °F    
Average Humidity 63    
Maximum Humidity 79    
Minimum Humidity 47    
Precipitation  
Precipitation 0.00 in - - ()
Sea Level Pressure  
Sea Level Pressure 29.95 in    
Wind  
Wind Speed 9 mph ()    
Max Wind Speed 20 mph    
Max Gust Speed 25 mph    
Visibility 14.0 miles    
Events Snow    
Averages and records for this station are not official NWS values.
T = Trace of Precipitation, MM = Missing Value Source: Averaged Metar Reports

Daily Weather History Graph

Daily Weather History Graph

Search for Another Location

Airport:

Trip Planner

Search our weather history database for the weather conditions in past years. The results will help you decide how hot, cold, wet, or windy it might be!

Date:

Astronomy

Feb. 25, 2014 Rise Set
Actual Time 6:40 AM EST 5:36 PM EST
Civil Twilight 6:10 AM EST 6:06 PM EST
Nautical Twilight 5:36 AM EST 6:40 PM EST
Astronomical Twilight 5:01 AM EST 7:14 PM EST
Moon 3:41 AM EST 1:31 PM EST
Length of Visible Light 11h 55m
Length of Day
10h 56m
Waning Crescent, 18% of the Moon is Illuminated
Feb 25
Waning Crescent
Mar 1
New
Mar 8
First Quarter
Mar 16
Full
Mar 23
Last Quarter

Hourly Weather History & Observations

Time (EST) Temp. Windchill Dew Point Humidity Pressure Visibility Wind Dir Wind Speed Gust Speed Precip Events Conditions
12:00 AM 14.0 °F -0.8 °F 1.4 °F 57% 29.97 in 15.0 mi West 13.8 mph - N/A   Partly Cloudy
1:00 AM 13 °F - 2 °F 48% 29.99 in 15 mi West 11.5 mph - -   Mostly Cloudy
1:00 AM 12.2 °F -1.0 °F 3.2 °F 67% 29.98 in 15.0 mi West 10.4 mph - N/A   Mostly Cloudy
2:00 AM 12.2 °F -2.5 °F 1.4 °F 62% 29.98 in 15.0 mi West 12.7 mph - N/A   Mostly Cloudy
3:00 AM 12.2 °F -0.2 °F 1.4 °F 62% 29.98 in 15.0 mi West 9.2 mph - N/A   Scattered Clouds
4:00 AM 10.4 °F -0.4 °F 1.4 °F 67% 29.98 in 15.0 mi West 6.9 mph - N/A   Scattered Clouds
5:00 AM 10.4 °F 0.8 °F -0.4 °F 62% 29.98 in 15.0 mi West 5.8 mph - N/A   Scattered Clouds
6:00 AM 8.6 °F 0.1 °F 1.4 °F 73% 29.99 in 15.0 mi WNW 4.6 mph - N/A   Mostly Cloudy
7:00 AM 9 °F - 2 °F 63% 29.98 in 15 mi West 3.5 mph - -   Scattered Clouds
7:00 AM 8.6 °F 2.0 °F 3.2 °F 79% 29.98 in 15.0 mi West 3.5 mph - N/A   Scattered Clouds
8:00 AM 10.4 °F 2.2 °F 3.2 °F 73% 29.99 in 15.0 mi West 4.6 mph - N/A   Mostly Cloudy
9:00 AM 10.4 °F -0.4 °F 3.2 °F 73% 29.98 in 15.0 mi West 6.9 mph - N/A   Mostly Cloudy
9:52 AM 12.2 °F 1.7 °F 1.4 °F 62% 29.97 in 12.0 mi West 6.9 mph - N/A Snow Light Snow Showers
10:00 AM 12.2 °F 2.9 °F 3.2 °F 67% 29.97 in 12.0 mi West 5.8 mph - N/A Snow Light Snow Showers
11:00 AM 14.0 °F -0.8 °F 3.2 °F 62% 29.97 in 10.0 mi WSW 13.8 mph - N/A Snow Light Snow Showers
12:00 PM 14.0 °F 1.2 °F 5.0 °F 67% 29.95 in 10.0 mi WSW 10.4 mph - N/A Snow Light Snow Showers
1:00 PM 14 °F - 5 °F 55% 29.94 in 7 mi WSW 16.1 mph - - Snow Light Snow Showers
1:00 PM 14.0 °F -2.0 °F 5.0 °F 67% 29.94 in 8.0 mi WSW 16.1 mph - N/A Snow Light Snow Showers
2:00 PM 14.0 °F -2.0 °F 5.0 °F 67% 29.92 in 12.0 mi WSW 16.1 mph 23.0 mph N/A Snow Light Snow Showers
2:43 PM 15.8 °F 0.3 °F 3.2 °F 58% 29.91 in 15.0 mi West 16.1 mph - N/A   Overcast
3:00 PM 15.8 °F -0.6 °F 3.2 °F 58% 29.91 in 15.0 mi WSW 18.4 mph 25.3 mph N/A   Overcast
3:12 PM 15.8 °F -0.2 °F 5.0 °F 62% 29.91 in 15.0 mi WSW 17.3 mph 25.3 mph N/A Snow Light Snow Showers
4:00 PM 15.8 °F 2.1 °F 5.0 °F 62% 29.91 in 15.0 mi West 12.7 mph 21.9 mph N/A Snow Light Snow Showers
4:50 PM 15.8 °F -1.1 °F 3.2 °F 58% 29.91 in 15.0 mi West 19.6 mph - N/A   Overcast
5:00 PM 15.8 °F -1.1 °F 3.2 °F 58% 29.91 in 15.0 mi West 19.6 mph - N/A   Overcast
6:00 PM 14.0 °F -0.8 °F 3.2 °F 62% 29.92 in 15.0 mi WSW 13.8 mph - N/A   Scattered Clouds
7:00 PM 13 °F - 2 °F 47% 29.94 in 15 mi WSW 10.4 mph - -   Partly Cloudy
7:00 PM 14.0 °F 2.0 °F 1.4 °F 57% 29.93 in 15.0 mi WSW 9.2 mph - N/A   Partly Cloudy
8:00 PM 12.2 °F 0.7 °F 1.4 °F 62% 29.93 in 15.0 mi WSW 8.1 mph - N/A   Partly Cloudy
9:00 PM 10.4 °F 2.2 °F 1.4 °F 67% 29.92 in 15.0 mi SW 4.6 mph - N/A   Scattered Clouds
10:00 PM 10.4 °F 2.2 °F 1.4 °F 67% 29.91 in 15.0 mi SW 4.6 mph - N/A   Overcast
10:38 PM 12.2 °F - 1.4 °F 62% 29.91 in 15.0 mi West 2.3 mph - N/A Snow Light Snow Showers
11:00 PM 12.2 °F 4.3 °F 1.4 °F 62% 29.91 in 15.0 mi SSW 4.6 mph - N/A Snow Light Snow Showers